Tracking 17631 objects as of 3-May-2016
HD Live streaming from Space Station
objects crossing your sky now

SL-19 R/B

Track SL-19 R/B now!
10-day predictions


NORAD ID: 36589
Int'l Code: 2010-023B
Perigee: 881.5 km
Apogee: 1,216.2 km
Inclination: 100.6 °
Period: 106.0 minutes
Semi major axis: 7419 km
RCS: 6.505 m2 (large)
Launch date: June 2, 2010
Source: Commonwealth of Independent States (former USSR) (CIS)
Launch site: PLESETSK MISSILE AND SPACE COMPLEX (PKMTR)

Note: This is a ROCKET BODY
Your satellite tracking list
Your tracking list is empty





NASA's NSSDC Master Catalog

Two Line Element Set (TLE):
1 36589U 10023B   16123.95806672 -.00000025 +00000-0 +30517-4 0  9991
2 36589 100.5591 134.0075 0225548 005.9865 048.0927 13.58357001293651
Source of the keplerian elements: AFSPC

N2YO: 325